Preview of NWS' New Version of Forecast
This preview is not operational and should not be used for support decisions.
Latest weather observations around

Anniston Metro Airport (KANB)

Using International System of Units (Switch to English Units)
Date/ Time (CST) Wind (kph) Vis. (km) Weather Sky Cond. Temp (°C) Rel. Humidity Wind Chill (°C) Heat Index (°C) Pressure Precip. (cm)
Air Dwpt 6 hour Altimeter (hPa) Sea level (hPa) 1 hr 3 hr 6 hr
Max Min
Feb 22 07:53 ENE 8 16.09 Clear CLR 18 17     90%     1029.8 1029.2      
Feb 22 06:53 Calm 12.87 Clear CLR 16 14     93%     1029.5 1028.9      
Feb 22 05:53 Calm 16.09 Clear CLR 16 14     93%     1028.5 1028.1      
Feb 22 04:53 N 8 16.09 Clear CLR 17 16     93%     1028.1 1027.5      
Feb 22 03:53 Calm 16.09 Clear CLR 16 14     90%     1027.8 1027.1      
Feb 22 02:53 WSW 8 16.09 Clear CLR 19 17     87%     1027.4 1026.7      
Feb 22 01:53 8 16.09 Clear CLR 20 17     81%     1027.1 1026.2      
Feb 22 00:53 SSW 9 16.09 Clear CLR 21 17     78%     1027.4 1026.7      
Feb 21 23:53 SSW 13 16.09 Clear CLR 22 17     73%   22 1027.4 1026.7      
Feb 21 22:53 S 15 16.09 Clear CLR 23 17     68%   23 1027.1 1026.3      
Feb 21 21:53 Calm 16.09 Clear CLR 22 16     70%   22 1027.1 1026.3      
Feb 21 20:53 Calm 16.09 Clear CLR 22 16     68%   22 1026.8 1026      
Feb 21 19:53 ENE 5 16.09 Clear CLR 22 17     76%   22 1026.1 1025.6      
Feb 21 18:53 Calm 16.09 Clear CLR 23 17     71%   23 1026.1 1025.4      
Feb 21 17:53 SSE 9 16.09 Clear CLR 24 17     66%   24 1025.7 1025.2      
Feb 21 16:53 SSE 13 16.09 Mostly Cloudy BKN095 25 17     62%   25 1025.7 1024.9      
Feb 21 15:53 ESE 17 16.09 Cloudy FEW043 OVC090 26 17     58%   26 1025.1 1024.4      
Feb 21 14:53 S 15 16.09 Mostly Cloudy BKN037 BKN055 BKN100 26 18     62%   26 1025.7 1025      
Feb 21 13:53 SSE 13 16.09 Partly Cloudy FEW040 SCT065 SCT090 26 17     58%   26 1026.1 1025.1      
Feb 21 12:53 S 17 16.09 Mostly Cloudy SCT035 BKN044 BKN060 26 18     60%   26 1026.8 1025.8      
Feb 21 12:24 S 22 16.09 Cloudy BKN030 OVC040 25 18     64%   25 1027.1        
Feb 21 11:53 S 13 16.09 Cloudy BKN028 OVC033 24 18     69%   25 1027.4 1026.7      
Feb 21 10:53 SSW 11 16.09 Cloudy BKN023 OVC028 24 18     71%   24 1028.5 1027.8      
Feb 21 09:53 S 17 16.09 Cloudy OVC019 23 18     76%   23 1029.1 1028.3      
Feb 21 08:53 S 13 16.09 Cloudy OVC017 22 18     81%   22 1029.1 1028.4      
Feb 21 07:53 S 13 16.09 Cloudy OVC020 21 18     81%     1028.5 1027.7      
Feb 21 07:23 Calm 16.09 Mostly Cloudy BKN025 BKN049 21 18     84%     1027.8        
Feb 21 06:53 Calm 16.09 Mostly Cloudy FEW018 BKN033 19 17     87%     1027.4 1027      
Feb 21 06:50 Calm 16.09 Mostly Cloudy SCT018 BKN033 19 17     88%     1027.4        
Feb 21 05:22   16.09 Mostly Cloudy BKN020 21 17     81%     1027.4        
Feb 21 05:13 S 8 16.09 Partly Cloudy SCT020 SCT033 21 17     81%     1027.4        
Feb 21 05:06 S 5 16.09 Mostly Cloudy BKN021 BKN033 21 17     81%     1027.1        
Feb 21 04:53 S 8 16.09 Partly Cloudy SCT021 SCT034 20 17     84%     1027.1 1026.5      
Feb 21 03:53 WSW 5 16.09 Partly Cloudy SCT044 20 17     84%     1026.8 1026.1      
Feb 21 02:53 S 5 16.09 Mostly Cloudy BKN065 21 18     81%     1026.8 1025.8      
Feb 21 01:53 SSW 5 16.09 Cloudy FEW020 BKN043 OVC050 21 18     84%     1026.8 1026      
Feb 21 01:16 SE 5 16.09 Cloudy SCT020 SCT026 OVC038 21 18     84%     1026.8        
Feb 21 00:53 SSW 5 16.09 Mostly Cloudy SCT020 BKN027 21 18     87%     1026.8 1026.2      
Feb 20 23:53 Calm 16.09 Mostly Cloudy BKN020 21 18     84%     1026.8 1026.1      
Feb 20 22:53 SE 9 16.09 Partly Cloudy FEW031 SCT038 21 18     81%     1026.4 1025.7      
Feb 20 21:53 SE 11 16.09 Clear CLR 21 17     78%     1026.1 1025.6      
Feb 20 20:53 Calm 16.09 Mostly Clear FEW040 21 17     78%     1025.7 1025.2      
Feb 20 19:53 SE 15 16.09 Cloudy FEW050 BKN075 OVC100 22 18     76%   22 1025.4 1025      
Feb 20 18:53 SE 5 16.09 Cloudy OVC100 22 17     73%   22 1025.4 1024.9      
Feb 20 17:53 ESE 9 16.09 Mostly Cloudy BKN090 23 17     71%   23 1025.4 1024.9      
Feb 20 16:53 SE 9 16.09 Cloudy SCT070 OVC085 24 17     66%   24 1024.7 1024.3      
Feb 20 15:53 S 18 16.09 Cloudy FEW044 BKN060 OVC080 24 17     62%   25 1024.4 1023.9      
Feb 20 14:53 SE 13 16.09 Cloudy FEW038 SCT047 OVC080 25 17     62%   25 1024.4 1023.8      
Feb 20 13:53 SE 15 16.09 Cloudy FEW035 OVC075 24 17     64%   25 1025.1 1024.3      
Feb 20 12:53 SE 17 16.09 Mostly Cloudy SCT032 BKN070 24 17     64%   25 1025.4 1024.8      
Feb 20 12:00 SSE 18 16.09 Mostly Cloudy SCT025 SCT030 BKN070 23 17     71%   23 1026.4        
Feb 20 11:49 SE 13 16.09 Mostly Cloudy BKN025 BKN070 23 17     69%   23 1026.8        
Feb 20 10:53 SE 21 16.09 Partly Cloudy SCT021 23 18     73%   23 1027.1 1026.5      
Feb 20 09:53 ESE 13   Mostly Cloudy BKN017 21 17     81%     1027.4 1026.8      
Feb 20 09:19 SE 11   Mostly Cloudy BKN016 BKN055 21 17     78%     1027.4        
Feb 20 08:53 SE 17 16.09 Mostly Clear FEW013 19 17     84%     1027.4 1026.9      
Feb 20 07:53 NE 9 16.09 Clear CLR 18 15     84%     1026.8 1026.2      
Feb 20 06:53 ENE 9 16.09 Clear CLR 16 14     87%     1026.4 1025.9      
Feb 20 05:53 ENE 15 16.09 Cloudy OVC055 16 14     87%     1026.4 1026      
Feb 20 04:53 NE 11 16.09 Partly Cloudy SCT055 16 14     87%     1026.1 1025.6      
Feb 20 03:53 ENE 11 16.09 Mostly Cloudy BKN060 17 14     81%     1025.7 1025.1      
Feb 20 02:53 E 9 16.09 Clear CLR 18 14     76%     1025.4 1024.8      
Feb 20 01:53 E 5 16.09 Mostly Clear FEW060 19 14     73%     1025.4 1024.6      
Feb 20 00:53 Calm 16.09 Mostly Cloudy BKN065 20 14     70%     1025.4 1024.7      
Feb 19 23:53 SE 11 16.09 Cloudy OVC070 21 14     66%     1025.1 1024.4      
Feb 19 22:53 ESE 11 16.09 Mostly Cloudy BKN070 21 14     63%     1024.7 1024.2      
Feb 19 21:53 SSE 15 16.09 Mostly Cloudy BKN070 22 14     61%   22 1024.7 1024.1      
Feb 19 20:53 SE 11 16.09 Mostly Cloudy SCT050 BKN070 22 15     66%   22 1024.4 1023.9      
Feb 19 19:53 SE 5 16.09 Mostly Cloudy BKN070 22 15     66%   22 1024.1 1023.6      
Feb 19 18:53 ESE 13 16.09 Cloudy OVC070 22 15     64%   22 1023.7 1023.3      
Feb 19 17:53 SE 8 16.09 Cloudy OVC070 22 14     59%   22 1023.4 1023      
Feb 19 16:53 S 9 16.09 Cloudy OVC070 23 13     53%   23 1023.4 1022.8      
Feb 19 15:53 S 17 16.09 Cloudy OVC070 24 13     48%   24 1022.7 1022.2      
Feb 19 14:53 S 21 16.09 Mostly Clear FEW049 25 12     45%   25 1022.7 1022.1      
Feb 19 13:53 SSW 21 16.09 Mostly Clear FEW042 FEW065 25 15     54%   25 1022.7 1022.3      
Feb 19 12:53 S 24 16.09 Mostly Cloudy FEW040 SCT050 BKN060 24 16     60%   24 1023.4 1022.8      
Feb 19 11:53 SSE 17 16.09 Cloudy FEW031 BKN049 OVC065 23 17     66%   23 1024.7 1024.2      
Feb 19 10:53 SSE 11 16.09 Partly Cloudy SCT024 SCT028 22 17     71%   22 1025.7 1025.3      
Feb 19 09:53 SE 13 16.09 Mostly Cloudy BKN016 BKN022 20 17     81%     1026.4 1026      
Feb 19 09:40 11 16.09 Mostly Cloudy BKN015 BKN020 21 17     81%     1026.4        
Feb 19 09:21 S 13 16.09 Mostly Cloudy BKN011 BKN065 20 17     84%     1026.4        
Feb 19 08:53 ESE 13 16.09 Partly Cloudy SCT010 19 17     87%     1026.1 1025.8      
Jun 11 20:53 Calm 16.09 Partly Cloudy SCT048 SCT080 27 21     71%   28 1019.7 1018.7      
Jun 11 08:33 ENE 8 16.09 Partly Cloudy SCT018 24 21     79%   25 1022.4        
Jun 10 18:53 SSE 8 16.09 Clear CLR 28 17     49%   29 1017.6 1016.8      
Jun 09 15:53 WSW 13 16.09 Clear CLR 28 14     41%   28 1014.2 1013.5      
Jun 09 00:53 Calm 16.09 Clear CLR 18 16     87%     1013.2 1012.4